Regional Weather Roundup
Issued by NWS

Home | Current Version | Previous Version | Text Only | Print | Product List | Glossary Off
Versions: 1 2 3 4 5 6 7 8 9 10 11 12 13 14 15 16 17 18 19 20 21 22 23 24 25 26 27 28 29 30 31 32 33 34 35 36 37 38 39 40 41 42 43 44 45 46 47 48 49 50

000
ASUS43 KLSX 031607
RWRMO

WEATHER ROUNDUP FOR MISSOURI
NATIONAL WEATHER SERVICE ST LOUIS MO
1100 AM CDT MON AUG 03 2015

NOTE: "FAIR" INDICATES FEW OR NO CLOUDS BELOW 12,000 FEET WITH NO
       SIGNIFICANT WEATHER AND/OR OBSTRUCTIONS TO VISIBILITY.
       CURRENT SKY AND/OR WEATHER CONDITIONS ARE NOT AVAILABLE FOR
       CHILLICOTHE AND FARMINGTON.

MOZ001>031-035>038-043-044-053-054-031700-
...NORTHERN AND WESTERN MISSOURI...

CITY           SKY/WX    TMP DP  RH WIND       PRES   REMARKS
KANSAS CTY INT PTSUNNY   83  70  64 VRB6      29.96R
KANSAS C DTWN  MOSUNNY   86  70  58 CALM      29.94S HX  90
LEE`S SUMMIT   SUNNY     84  70  62 VRB5      29.96S
ST JOSEPH      MOSUNNY   79  70  74 N7        29.96R
CHILLICOTHE      N/A     80  64  58 NE6       29.97R
KIRKSVILLE     SUNNY     79  59  50 N6        29.97R

$$
MOZ066>068-077>081-088>096-101>105-031700-
...SOUTHWEST MISSOURI...

CITY           SKY/WX    TMP DP  RH WIND       PRES   REMARKS
SPRINGFIELD    SUNNY     87  66  49 W7        29.99S
JOPLIN         SUNNY     91  67  44 W10       29.97S HX  94

$$
MOZ032>034-039>042-045>050-055>058-069>072-031700-
...CENTRAL MISSOURI...

CITY           SKY/WX    TMP DP  RH WIND       PRES   REMARKS
COLUMBIA       MOSUNNY   84  66  54 W7        29.95R
JEFFERSON CITY MOSUNNY   84  67  56 NW5       29.93R
ROLLA          MOSUNNY   83  68  60 W12       29.95S
SEDALIA        MOSUNNY   83  65  54 CALM      29.97R
WHITEMAN AFB   MOSUNNY   84  66  55 N8        29.96R
FT LEONARD WD  MOSUNNY   84  68  59 NW8       29.97S
OSAGE BEACH    SUNNY     82  66  57 W7        29.97R

$$
MOZ051-052-059>065-031700-
...EAST CENTRAL MISSOURI...

CITY           SKY/WX    TMP DP  RH WIND       PRES   REMARKS
ST LOUIS INTL  MOSUNNY   89  61  38 NW10      29.92R
SPIRIT OF STL  MOSUNNY   85  68  56 W6        29.90S
ST CHARLES     SUNNY     85  63  47 W10       29.90R

$$
MOZ072>076-082>087-097>100-106>115-031700-
...SOUTH CENTRAL AND SOUTHEAST MISSOURI...

CITY           SKY/WX    TMP DP  RH WIND       PRES   REMARKS
CAPE GIRARDEAU SUNNY     87  71  58 VRB3      29.92S HX  93
FARMINGTON     SUNNY     84  68  58 NW9       29.98S
POPLAR BLUFF   MOSUNNY   88  70  55 W7        29.94R HX  93
WEST PLAINS    SUNNY     86  65  49 W8        30.00S
$$



USA.gov is the U.S. government's official web portal to all federal, state and local government web resources and services.